Flag for Guatemala Weather past 2 weeks in Escuintla, Guatemala

Now
64 °F

Partly cloudy.


Feels Like: 64 °F
Forecast: 68 / 88 °F
Wind: 5 mph from South

Location: Guatemala Aeropuertola Aurora

Current Time: Sep 21, 2014 at 9:09:39 PM

Latest Report: Sep 21, 2014 at 8:00 PM


Visibility: 5 mi

Pressure: 30.30 "Hg

Humidity: 100%

Dew point: 64 °F

Location of EscuintlaLocation

Historic Weather in Escuintla — Graph

°F

Escuintla temperature yesterday

Maximum temperature yesterday: 77 °F (at 1:00 PM)
Minimum temperature yesterday: 63 °F (at 4:00 AM)
Average temperature yesterday: 68 °F

Past Weeks' High & Low Weather Summary

 TemperatureHumidityPressure
High81 °F (Sep 18, 1:00 PM)100% (Sep 6, 8:00 PM)30.36 "Hg (Sep 6, 8:00 PM)
Low61 °F (Sep 8, 2:00 AM)45% (Sep 18, 2:00 PM)30.12 "Hg (Sep 11, 4:00 PM)
Average67 °F86%30.24 "Hg
* Reported Sep 6 8:00 PM — Sep 21 8:00 PM, Escuintla, Weather by CustomWeather, © 2014

Note: Actual official high and low records may vary slightly from our data, if they occured in-between our weather recording intervals... More about our weather records

Advertising

Escuintla weather history for previous 24 hours

 ConditionsComfort  
Time TempWeatherWind HumidityBarometerVisibility
8:00 PM
Sep 21
64 °FPartly cloudy.5 mph100%30.30 "Hg5 mi
7:00 PM66 °FPartly cloudy.5 mph88%30.27 "HgN/A
6:00 PM66 °FPartly cloudy.9 mph94%30.24 "HgN/A
5:00 PM66 °FLight rain. Broken clouds.7 mph94%30.21 "Hg5 mi
4:00 PM70 °FThundershowers. Broken clouds.14 mph83%30.21 "HgN/A
3:20 PMN/AThunderstorms.12 mphN/AN/AN/A
3:00 PM73 °FLight rain. Broken clouds.12 mph69%30.18 "HgN/A
2:00 PM79 °FScattered clouds.14 mph58%30.21 "HgN/A
1:00 PM79 °FScattered clouds.16 mph58%30.24 "HgN/A
12:00 PM77 °FBroken clouds.14 mph57%30.27 "HgN/A
11:00 AM77 °FBroken clouds.14 mph54%30.30 "HgN/A
10:00 AM73 °FScattered clouds.7 mph65%N/AN/A
9:00 AM72 °FPartly sunny.5 mph69%30.30 "HgN/A
8:00 AM68 °FSunny.5 mph78%30.30 "Hg10 mi
7:00 AM64 °FScattered clouds.2 mph88%30.27 "HgN/A
6:00 AM63 °FSunny.No wind94%30.24 "Hg10 mi
5:00 AM64 °FClear.No wind88%30.24 "Hg10 mi
4:00 AM64 °FClear.No wind94%30.21 "Hg10 mi
3:00 AM64 °FPassing clouds.2 mph88%30.24 "HgN/A
2:00 AM64 °FPartly cloudy.2 mph94%30.24 "HgN/A
1:00 AM66 °FPartly cloudy.No wind88%30.24 "HgN/A
12:00 AM66 °FPartly cloudy.3 mph94%30.27 "HgN/A
11:00 PM
Sep 20
66 °FPartly cloudy.3 mph88%30.30 "HgN/A
10:00 PM66 °FPassing clouds.3 mph94%30.30 "HgN/A
9:00 PM66 °FPartly cloudy.7 mph88%30.30 "HgN/A
Weather by CustomWeather, © 2014

See weather overviewHow to use our weather pages